Location: Riverside
(39.1734°N, 77.8561°W)
Time: 20:32:27
(UTC+00:00)

N. Korean satellite - Visible Passes

Search period start: 17 October 2019 00:00
Search period end: 27 October 2019 00:00
Orbit: 455 x 508 km, 97.2° (Epoch: 16 October)

Date Brightness Start Highest point End Pass type
(mag) Time Alt. Az. Time Alt. Az. Time Alt. Az.
17 Oct 7.7 10:49:53 10° NNE 10:53:24 49° E 10:56:56 10° S visible
17 Oct 9.2 22:58:01 10° SSW 23:00:55 26° W 23:03:51 10° NW visible
18 Oct 9.4 10:25:05 10° NE 10:28:02 23° E 10:30:59 10° SSE visible
19 Oct 10.4 10:01:23 10° ENE 10:02:35 11° E 10:03:47 10° ESE visible
20 Oct 10.0 23:16:24 10° SW 23:18:30 15° W 23:20:37 10° NW visible
21 Oct 8.3 10:42:09 10° NNE 10:45:35 39° E 10:49:02 10° S visible
21 Oct 8.6 22:49:57 10° SSW 22:53:04 33° W 22:56:13 10° NNW visible
22 Oct 9.8 10:17:32 10° NE 10:20:11 19° E 10:22:51 10° SE visible
24 Oct 7.0 10:59:26 10° NNE 11:03:05 71° E 11:06:46 10° S visible
24 Oct 9.7 23:08:03 10° SW 23:10:36 19° W 23:13:10 10° NW visible
25 Oct 8.8 10:34:26 10° NNE 10:37:44 31° E 10:41:03 10° SSE visible
25 Oct 8.0 22:41:54 10° S 22:45:10 42° W 22:48:29 10° NNW visible
26 Oct 10.1 10:10:01 10° NE 10:12:18 16° E 10:14:34 10° SE visible
